User: anonymous   Login
Location: Hancock Field Station
(44.9202°N, 120.4259°W)
Time: 00:34:35
(UTC-07:00)
Language:

Cosmos 1707 - Orbit

View from above orbital plane
View from above orbital plane
View from above satellite
View from above satellite

Ground track
Ground track

The orbit data is extracted from the following two-line orbital elements,

1 16326U 85113A   17296.89859993 +.00001129 +00000-0 +61375-4 0  9990
2 16326 082.5101 081.8996 0009773 209.9557 150.1116 15.13466001736537
Epoch (UTC): 23 October 2017 21:33:59
Eccentricity: 0.0009773
inclination: 82.5101°
perigee height: 519 km
apogee height: 532 km
right ascension of ascending node: 81.8996°
argument of perigee: 209.9557°
revolutions per day: 15.13466001
mean anomaly at epoch: 150.1116°
orbit number at epoch: 73653

The dashed part of the orbit path shows where the satellite is in the earth's shadow,  

DLR